This is the latest recevied weather packets stored in our database for station/object N4ZIQ. If no packets are shown the sender has not sent any weather packets the latest 10 day(s).
| Time | Temp. | Humidity | Pressure | Rain* | Wind** | Luminosity | Snow |
|---|---|---|---|---|---|---|---|
| 1778166345 | 30.56° C | 61% | 1016.6 hPa | 0 mm | - | 735 W/m² | - |
| 1778166057 | 30° C | 61% | 1016.6 hPa | 0 mm | - | 724 W/m² | - |
| 1778165746 | 30° C | 62% | 1016.6 hPa | 0 mm | - | 712 W/m² | - |
| 1778165446 | 29.44° C | 61% | 1016.6 hPa | 0 mm | - | 705 W/m² | - |
| 1778165152 | 28.89° C | 61% | 1016.6 hPa | 0 mm | - | 693 W/m² | - |
| 1778164847 | 28.89° C | 65% | 1016.6 hPa | 0 mm | - | 680 W/m² | - |
| 1778164546 | 28.33° C | 67% | 1016.6 hPa | 0 mm | - | 664 W/m² | - |
| 1778164254 | 28.89° C | 66% | 1016.6 hPa | 0 mm | - | 654 W/m² | - |
| 1778163946 | 28.33° C | 68% | 1016.6 hPa | 0 mm | - | 640 W/m² | - |
| 1778163648 | 28.33° C | 67% | 1016.5 hPa | 0 mm | - | 628 W/m² | - |
| 1778163350 | 28.33° C | 68% | 1016.5 hPa | 0 mm | - | 617 W/m² | - |
| 1778163048 | 28.33° C | 68% | 1016.5 hPa | 0 mm | - | 605 W/m² | - |
| 1778162748 | 28.33° C | 69% | 1016.5 hPa | 0 mm | - | 587 W/m² | - |
| 1778162468 | 27.78° C | 70% | 1016.4 hPa | 0 mm | - | 578 W/m² | - |
| 1778162149 | 27.78° C | 71% | 1016.5 hPa | 0 mm | - | 561 W/m² | - |
| 1778161846 | 27.78° C | 74% | 1016.5 hPa | 0 mm | - | 547 W/m² | - |
| 1778161556 | 27.22° C | 73% | 1016.5 hPa | 0 mm | - | 536 W/m² | - |
| 1778161245 | 27.22° C | 73% | 1016.6 hPa | 0 mm | - | 522 W/m² | - |
| 1778160949 | 26.67° C | 75% | 1016.5 hPa | 0 mm | - | 508 W/m² | - |
| 1778160654 | 26.11° C | 75% | 1016.5 hPa | 0 mm | - | 492 W/m² | - |
| 1778160347 | 26.11° C | 77% | 1016.5 hPa | 0 mm | - | 478 W/m² | - |
| 1778160045 | 26.11° C | 77% | 1016.5 hPa | 0 mm | - | 461 W/m² | - |
| 1778159752 | 26.11° C | 77% | 1016.4 hPa | 0 mm | - | 443 W/m² | - |
| 1778159449 | 25.56° C | 78% | 1016.4 hPa | 0 mm | - | 432 W/m² | - |
| 1778159145 | 25.56° C | 77% | 1016.4 hPa | 0 mm | - | 417 W/m² | - |
* Rain latest hour (hover to see other rain measurements)
** Current wind speed in m/s (hover to see current wind gust speed)